CW9769 Weather Reports


Display with metric or nautical units.
time (UTC)temp
F
wind
direction
speed
MPH
gust
MPH
rain 1hr
in
rain 24hr
in
rain mn
in
humidity
%
barometer
mb
20260509191630 69 274 13.0 22.0 0.00 0.18 0.00 59 1005.2
20260509190629 69 264 13.0 21.0 0.00 0.18 0.00 60 1005.2
20260509185556 68 262 12.0 24.0 0.00 0.18 0.00 60 1005.6
20260509184556 68 276 16.0 24.0 0.00 0.18 0.00 60 1005.6
20260509183555 68 262 12.0 24.0 0.00 0.18 0.00 61 1005.6
20260509182522 68 277 16.0 26.0 0.00 0.18 0.00 62 1005.9
20260509181449 67 275 15.0 27.0 0.00 0.18 0.00 62 1005.9
20260509180448 67 260 11.0 21.0 0.00 0.18 0.00 63 1005.5
20260509175447 67 255 12.0 23.0 0.00 0.18 0.00 63 1005.5
20260509174415 67 272 12.0 19.0 0.00 0.18 0.00 63 1005.5
20260509173414 66 270 12.0 22.0 0.00 0.18 0.00 64 1005.5
20260509172414 66 284 13.0 22.0 0.00 0.18 0.00 65 1005.8
20260509171412 66 294 11.0 19.0 0.00 0.18 0.00 65 1005.8
20260509170411 65 276 10.0 16.0 0.00 0.18 0.00 68 1005.8
20260509165410 65 267 10.0 17.0 0.00 0.18 0.00 66 1005.8
20260509164409 64 271 10.0 17.0 0.00 0.18 0.00 68 1005.8
20260509163408 64 266 10.0 17.0 0.00 0.18 0.00 70 1005.8
20260509162407 64 283 9.0 16.0 0.00 0.18 0.00 67 1005.8
20260509161406 63 272 10.0 17.0 0.00 0.18 0.00 70 1005.7
20260509160405 64 260 10.0 17.0 0.00 0.18 0.00 67 1005.7
20260509155404 63 282 7.0 17.0 0.00 0.18 0.00 71 1006.4
20260509154332 63 269 8.0 18.0 0.00 0.18 0.00 69 1006.4
20260509153332 62 271 9.0 18.0 0.00 0.18 0.00 71 1006.4
20260509152331 60 284 11.0 15.0 0.00 0.18 0.00 73 1006.6
20260509151330 60 299 11.0 16.0 0.00 0.18 0.00 73 1006.3
20260509150329 61 313 11.0 16.0 0.00 0.18 0.00 73 1006.4
20260509145328 60 303 9.0 16.0 0.00 0.18 0.00 77 1006.3
20260509144327 61 302 7.0 16.0 0.00 0.18 0.00 76 1006.4
20260509143326 61 272 8.0 16.0 0.00 0.18 0.00 78 1006.3
20260509142325 59 293 9.0 16.0 0.00 0.18 0.00 77 1006.3
20260509141252 58 294 10.0 15.0 0.00 0.18 0.00 80 1005.9
20260509140251 58 299 7.0 13.0 0.00 0.18 0.00 82 1005.9
20260509135251 57 288 6.0 14.0 0.00 0.18 0.00 85 1006.2
20260509134250 57 294 5.0 14.0 0.00 0.18 0.00 85 1006.2
20260509133249 57 284 4.0 11.0 0.00 0.18 0.00 87 1006.2
20260509132146 56 281 6.0 11.0 0.00 0.18 0.00 86 1006.5
20260509131146 56 270 5.0 11.0 0.00 0.18 0.00 87 1006.2
20260509130145 56 265 7.0 12.0 0.00 0.18 0.00 87 1006.2
20260509125144 56 284 6.0 11.0 0.00 0.18 0.00 89 1006.5
20260509124143 55 252 4.0 7.0 0.00 0.18 0.00 90 1006.1
20260509123142 54 265 3.0 6.0 0.00 0.18 0.00 90 1006.5
20260509122141 55 248 4.0 7.0 0.00 0.18 0.00 90 1006.5
20260509121109 54 256 3.0 7.0 0.00 0.18 0.00 91 1006.4
20260509120108 54 264 2.0 7.0 0.00 0.18 0.00 91 1006.8
20260509115107 54 269 5.0 7.0 0.00 0.18 0.00 91 1006.4
20260509114107 54 265 4.0 6.0 0.00 0.18 0.00 92 1006.4
20260509113032 53 268 2.0 5.0 0.00 0.18 0.00 92 1006.4
20260509112031 53 266 1.0 4.0 0.00 0.18 0.00 92 1006.4
20260509111030 53 258 2.0 4.0 0.00 0.18 0.00 92 1006.4
20260509110029 53 279 2.0 4.0 0.00 0.18 0.00 92 1006.4
20260509104926 53 264 1.0 4.0 0.00 0.18 0.00 92 1006.4
20260509103854 53 272 1.0 4.0 0.00 0.18 0.00 92 1006.1
20260509102852 53 283 2.0 5.0 0.00 0.18 0.00 92 1006.1
20260509101850 53 310 3.0 5.0 0.00 0.18 0.00 92 1006.1
20260509100849 53 338 3.0 5.0 0.00 0.18 0.00 92 1006.1
20260509095848 53 263 3.0 6.0 0.00 0.18 0.00 92 1006.1
20260509094847 53 251 3.0 6.0 0.00 0.18 0.00 92 1006.4
20260509093847 53 251 3.0 7.0 0.00 0.18 0.00 92 1006.1
20260509092847 53 255 4.0 9.0 0.00 0.18 0.00 92 1006.4
20260509091846 53 268 5.0 9.0 0.00 0.18 0.00 92 1006.4
20260509090845 52 257 3.0 7.0 0.00 0.18 0.00 92 1006.4
20260509085844 52 251 3.0 5.0 0.00 0.18 0.00 92 1006.4
20260509084842 52 263 3.0 6.0 0.00 0.18 0.00 92 1006.7
20260509083841 52 263 2.0 6.0 0.00 0.18 0.00 92 1006.7
20260509082840 52 260 3.0 6.0 0.00 0.18 0.00 92 1006.7
20260509081838 52 265 2.0 6.0 0.00 0.18 0.00 92 1006.7
20260509080837 52 266 4.0 6.0 0.00 0.18 0.00 92 1007.1
20260509075806 52 267 3.0 6.0 0.00 0.18 0.00 92 1007.1
20260509074700 52 268 2.0 6.0 0.00 0.18 0.00 92 1007.1
20260509073658 52 265 2.0 6.0 0.00 0.18 0.00 92 1007.1
20260509072657 52 258 2.0 6.0 0.00 0.18 0.00 91 1006.8
20260509071657 52 271 3.0 6.0 0.00 0.18 0.00 92 1007.2
20260509070656 53 274 4.0 5.0 0.00 0.18 0.00 91 1007.2
20260509065624 53 276 3.0 7.0 0.00 0.18 0.00 91 1007.2
20260509064623 53 283 3.0 8.0 0.00 0.18 0.00 91 1007.2
20260509063622 53 271 5.0 9.0 0.00 0.18 0.00 91 1007.6
20260509062621 53 273 5.0 9.0 0.00 0.18 0.00 91 1007.6
20260509061621 53 260 4.0 8.0 0.00 0.18 0.00 91 1007.6
20260509060620 53 250 5.0 9.0 0.00 0.18 0.00 91 1007.9
20260509055619 53 252 4.0 9.0 0.00 0.18 0.00 91 1007.9
20260509054618 53 254 6.0 9.0 0.00 0.18 0.00 91 1007.9
20260509053618 53 247 4.0 10.0 0.00 0.18 0.00 91 1007.9
20260509052617 53 253 4.0 10.0 0.00 0.18 0.00 91 1007.8
20260509051616 53 254 5.0 11.0 0.00 0.18 0.00 91 1008.2
20260509050615 53 265 6.0 11.0 0.00 0.18 0.00 91 1008.1
20260509045615 52 266 5.0 10.0 0.00 0.18 0.00 91 1008.2
20260509044614 52 253 3.0 8.0 0.00 0.18 0.00 91 1008.2
20260509043613 52 263 3.0 8.0 0.00 0.18 0.00 91 1008.5
20260509042612 52 257 2.0 6.0 0.00 0.18 0.00 91 1008.5
20260509041540 52 242 2.0 6.0 0.00 0.18 0.00 90 1008.5
20260509040539 52 228 2.0 6.0 0.00 0.18 0.00 90 1008.5
20260509035538 52 215 2.0 5.0 0.00 0.18 0.18 91 1008.5
20260509034537 52 240 2.0 5.0 0.00 0.18 0.18 90 1008.9
20260509033505 52 248 3.0 8.0 0.00 0.18 0.18 90 1008.9
20260509032504 52 250 2.0 8.0 0.00 0.18 0.18 90 1009.2
20260509031503 52 256 3.0 8.0 0.00 0.18 0.18 90 1009.2
20260509030431 52 258 4.0 8.0 0.00 0.18 0.18 90 1009.3
20260509025430 52 255 4.0 8.0 0.00 0.18 0.18 89 1009.3
20260509024430 52 251 2.0 10.0 0.00 0.18 0.18 90 1009.2
20260509023429 52 266 5.0 10.0 0.00 0.18 0.18 89 1009.5
20260509022428 52 249 6.0 10.0 0.00 0.18 0.18 89 1009.5
20260509021427 52 269 6.0 10.0 0.00 0.18 0.18 89 1009.2
20260509020426 52 263 4.0 12.0 0.00 0.18 0.18 89 1009.5
20260509015425 52 248 2.0 5.0 0.00 0.18 0.18 91 1009.1
20260509014424 52 243 2.0 5.0 0.00 0.18 0.18 90 1009.1
20260509013352 52 254 2.0 6.0 0.01 0.18 0.18 90 1009.1
20260509012320 52 255 3.0 7.0 0.01 0.18 0.18 90 1009.1
20260509011319 52 264 3.0 7.0 0.02 0.18 0.18 90 1009.1
20260509010318 52 259 3.0 8.0 0.02 0.18 0.18 90 1009.1
20260509005318 52 253 4.0 9.0 0.03 0.18 0.18 90 1009.1
20260509004317 52 249 3.0 10.0 0.03 0.18 0.18 90 1009.1
20260509003316 52 260 5.0 12.0 0.03 0.17 0.17 90 1009.1
20260509002315 52 244 5.0 12.0 0.04 0.17 0.17 91 1009.0
20260509001314 51 242 6.0 9.0 0.03 0.16 0.16 91 1008.7
20260509000313 51 253 3.0 8.0 0.03 0.16 0.16 91 1009.0
20260508235313 51 222 3.0 9.0 0.03 0.15 0.15 90 1008.9
20260508234312 51 245 5.0 9.0 0.04 0.15 0.15 90 1008.9
20260508233311 51 237 5.0 9.0 0.04 0.14 0.14 90 1008.9
20260508232310 51 255 5.0 9.0 0.04 0.13 0.13 90 1008.9
20260508231309 51 264 6.0 8.0 0.06 0.13 0.13 90 1008.9
20260508230309 51 239 4.0 8.0 0.06 0.13 0.13 90 1008.5
20260508225308 51 248 3.0 5.0 0.06 0.12 0.12 90 1008.9
20260508224307 51 267 2.0 4.0 0.06 0.11 0.11 90 1008.9
20260508223306 51 241 2.0 5.0 0.06 0.10 0.10 89 1008.9
20260508222234 52 248 2.0 5.0 0.06 0.09 0.09 88 1008.9
20260508221233 52 254 3.0 5.0 0.04 0.07 0.07 88 1008.9
20260508220232 52 281 1.0 4.0 0.04 0.07 0.07 88 1008.9
20260508215200 51 294 2.0 4.0 0.04 0.06 0.06 87 1009.0
20260508214159 52 322 2.0 3.0 0.03 0.05 0.05 87 1008.9
20260508213158 52 291 2.0 5.0 0.03 0.04 0.04 88 1008.9
20260508212125 52 297 3.0 6.0 0.03 0.03 0.03 87 1008.9
20260508211053 52 244 1.0 6.0 0.03 0.03 0.03 87 1008.6
20260508210021 52 258 2.0 6.0 0.03 0.03 0.03 87 1008.9
20260508205020 52 234 2.0 9.0 0.02 0.02 0.02 87 1008.9
20260508204018 52 268 5.0 9.0 0.02 0.02 0.02 86 1009.5
20260508202946 52 285 5.0 7.0 0.01 0.01 0.01 87 1009.5
20260508201946 52 306 3.0 10.0 0.00 0.00 0.00 86 1009.5
20260508200945 52 277 6.0 14.0 0.00 0.00 0.00 84 1009.9
20260508195944 52 281 6.0 15.0 0.00 0.00 0.00 83 1010.2
20260508194944 53 292 9.0 16.0 0.00 0.00 0.00 81 1010.6
20260508193943 54 277 11.0 18.0 0.00 0.00 0.00 81 1010.6
20260508192840 55 280 12.0 18.0 0.00 0.00 0.00 75 1010.6